Dewpoint
59 58 58 57 56 56 56 55 54 54 55 55 54 53 53 53 53 53 53 53 53 53 52 51 51 51 52 52 52 52 52 52 53 52 52 52 52 52 51 51 50 50 50 49 49 48 47 46 45 44 43 38
57 58 58 57 55 53 53 53 53 53 53 52 52 51 51 51 51 51 51 51 51 50 49 48 48 49 50 51 50 51 51 51 51 51 50 50 50 50 49 49 48 48 49 48 48 47 46 44 43 42 41 36
52 55 53 52 52 52 51 51 50 50 49 49 49 48 48 47 47 48 48 48 47 46 46 45 45 47 48 49 49 49 49 49 49 49 48 48 47 47 47 46 45 45 46 46 46 45 44 42 41 40 38 35
49 51 51 49 48 47 47 47 46 45 44 44 44 44 44 44 40 42 41 43 39 42 43 43 42 45 46 47 47 47 46 47 47 47 47 46 45 45 43 42 41 41 42 42 44 44 42 40 39 33 34 34
47 47 47 45 44 43 42 41 41 40 39 38 39 38 39 38 34 35 35 34 32 37 34 40 40 41 42 44 43 42 43 44 45 45 45 45 43 41 39 37 36 37 38 39 40 39 36 36 30 31 32 32
44 42 39 36 35 35 33 36 35 32 30 34 30 35 32 30 30 31 30 30 33 29 31 33 38 37 38 40 40 39 40 40 43 43 43 41 40 38 36 34 23 27 31 33 34 32 32 24 25 27 29 30
40 35 33 32 31 30 31 30 27 26 27 26 27 27 27 28 26 26 27 28 30 29 32 29 34 34 33 34 37 34 35 36 38 38 38 38 36 35 33 23 21 22 20 19 29 28 20 20 23 25 25 25
38 35 31 29 28 27 25 24 24 24 25 25 25 25 23 23 24 23 22 27 29 28 21 20 27 30 30 30 31 30 24 29 31 32 33 33 32 29 25 21 18 19 17 16 15 17 17 19 21 21 20 21
35 32 29 27 25 25 24 23 22 21 22 23 23 23 22 21 21 21 21 20 20 21 21 17 16 16 17 18 17 24 10 9 14 18 18 17 17 15 19 20 16 16 14 12 13 14 16 17 18 18 19 19
33 29 27 25 23 22 22 23 21 20 20 20 21 21 20 19 18 18 17 17 18 18 18 16 14 15 16 17 17 14 5 5 7 11 15 16 13 12 15 16 14 14 14 10 10 12 14 15 16 17 17 16
28 26 25 24 25 22 21 21 21 21 19 18 19 20 20 18 18 17 16 14 15 16 15 14 14 13 15 17 15 7 1 -0 1 6 12 15 11 11 13 12 13 13 13 9 8 9 12 13 14 16 12 11
24 24 22 22 23 21 24 21 21 21 20 19 17 19 19 18 16 17 16 14 14 14 14 15 15 14 13 15 15 7 1 -3 -3 1 8 13 11 10 10 9 12 12 12 6 4 8 9 12 13 14 6 9
23 21 19 19 19 19 24 20 21 21 19 16 16 16 18 18 14 15 15 14 14 14 14 15 15 13 12 14 15 8 2 -1 -4 -3 3 10 10 9 8 8 10 11 11 4 1 5 8 10 12 14 3 8
24 22 18 17 17 19 20 18 20 20 17 15 14 15 16 17 15 13 14 14 12 12 12 12 12 11 10 11 14 11 4 1 -3 -4 0 6 8 9 7 7 8 9 9 5 1 3 7 9 11 8 1 8
21 21 19 17 16 17 17 17 19 19 17 15 13 14 15 15 15 13 11 12 10 8 7 6 5 6 6 7 10 10 5 1 -2 -3 -0 4 7 8 4 5 6 6 5 2 0 2 6 8 10 2 -1 7
20 19 18 17 17 17 16 16 16 17 15 17 13 12 13 13 12 12 9 7 8 5 3 1 -0 1 3 5 7 8 4 -1 -4 -2 1 4 6 7 3 1 0 -1 -1 -3 -2 -0 4 7 9 -1 -1 6
17 17 18 18 17 16 17 14 14 14 15 12 11 11 10 9 8 7 6 4 4 6 1 -0 -1 1 4 4 5 5 0 -3 -4 -2 1 4 5 6 2 -3 -6 -3 -7 -6 -4 -2 3 5 8 -3 -3 4
15 16 17 17 16 16 13 13 13 14 14 13 9 8 8 7 5 3 2 2 1 1 0 -1 -1 0 2 3 4 1 -3 -5 -3 -2 -0 4 3 8 3 -6 -7 -6 -7 -5 -4 -3 2 4 8 -1 -5 2
15 16 16 15 14 13 13 12 12 12 13 12 9 6 5 6 6 1 -0 0 -1 -0 0 -0 -0 1 1 2 4 -0 -4 -3 -2 -2 -0 3 4 3 4 -3 -5 -6 -6 -4 -2 -2 2 2 8 -0 -5 1
15 15 15 16 17 12 11 10 10 10 11 12 11 5 3 5 7 4 -0 -0 2 0 -1 -1 -0 0 1 1 2 1 -3 -2 -3 -2 1 1 4 2 3 -3 -8 -6 -5 -3 -1 -1 -0 1 8 -3 -6 0
16 14 13 13 13 11 10 8 8 9 10 11 11 7 3 4 6 5 3 1 1 0 -2 -1 -1 0 0 0 -1 -3 -4 -4 -1 -3 -1 -0 4 2 3 -5 -8 -6 -4 -2 -1 -1 -0 0 6 -5 -6 0
16 13 11 10 11 12 7 7 7 7 8 8 10 9 5 3 4 4 4 2 1 -1 1 -1 -1 -1 -1 -0 -2 -4 -4 -4 -4 -4 -4 -2 1 1 -0 -5 -7 -6 -4 -2 -1 -0 -1 -1 2 -4 -6 -2
17 16 13 10 9 8 7 6 5 6 6 7 8 10 8 3 2 3 1 0 1 0 -1 -1 -1 -2 -1 -1 -3 -4 -6 -5 -4 -4 -5 -3 -0 0 -1 -5 -7 -6 -3 -4 -2 -1 -3 -2 2 -2 -4 -6
15 15 16 13 10 8 6 5 6 4 4 4 5 8 9 7 3 2 0 -2 -2 -0 -0 -1 -2 -2 -1 -1 -3 -5 -6 -6 -6 -5 -6 -5 -0 -3 -4 -6 -6 -6 -4 -4 -3 -2 -4 -4 4 -1 -6 -8
14 14 14 12 9 8 8 7 4 3 2 3 4 4 5 8 7 3 1 -0 -1 -2 -0 -1 -2 -2 -3 -2 -2 -5 -6 -6 -5 -5 -6 -4 -3 -2 -7 -8 -6 -6 -5 -6 -6 -6 -6 -4 1 2 -6 -10
14 13 13 12 10 8 6 5 3 2 2 3 4 3 3 3 5 6 3 2 -1 -1 -2 -2 -3 -3 -4 -4 -3 -4 -5 -5 -1 -7 -8 -7 -5 -4 -7 -9 -6 -6 -6 -7 -6 -6 -6 -6 -7 -1 -9 -10
14 14 13 11 9 8 7 7 6 4 4 2 1 1 2 2 1 3 5 3 2 -2 -2 -3 -3 -3 -3 -5 -0 -6 -8 -8 -8 -8 -8 -8 -5 -5 -7 -7 -6 -6 -7 -6 -6 -8 -5 -7 -10 -5 -8 -11
12 12 11 10 9 8 6 5 6 5 5 2 -0 -1 -1 0 -0 1 2 4 3 -1 -2 -2 -2 -2 -3 -4 -3 -6 -8 -8 -8 -8 -8 -8 -5 -6 -7 -9 -9 -5 -7 -7 -6 -14 -9 -8 -10 -15 -13 -12
12 11 9 9 7 6 5 4 3 1 1 1 2 -1 -2 -2 -1 -1 -0 1 4 3 -2 -2 -1 -1 -2 -2 -4 -5 -6 -7 -8 -8 -8 -8 -7 -6 -6 -9 -9 -9 -6 -7 -5 -6 -10 -17 -15 -15 -13 -11
12 12 11 9 6 3 3 2 2 0 -1 -1 -1 -2 -2 -3 -3 -3 -2 -2 -0 4 2 -2 -2 -1 -1 -1 -1 -2 -4 -5 -6 -7 -7 -7 -7 -6 -7 -8 -9 -10 -6 -6 -5 -8 -6 -4 -17 -16 -13 -13
10 8 8 6 4 2 1 0 0 -1 -2 -2 -2 -2 -3 -3 -3 -3 -3 -3 -2 -1 3 2 -1 -1 -1 -1 -1 -1 -3 -5 -6 -6 -6 -7 -7 -6 -3 -8 -11 -10 -9 -9 -8 -8 -9 -7 -5 -11 -14 -18